SL-14 DEB

Satellite information

Favourite Embed

Satellite Type and Status

DEBRISIN ORBIT

Key statistics

Satellite SL-14 DEB at a glance.

Uptime

14136

Days in orbit

Revolutions

≈ 14.1

Per day

Orbit

LEO

Low Earth Orbit

Inclination

82.5

Latest

Satellite identification and parameters

Extended collection of information and parameters for SL-14 DEB.

Object identification

Identified? True

Debris? True

Object name: SL-14 DEB

International designator: 1986-101L

Object number (NORAD): 18680

Object ID (CCSDS): 18680

Country: COMMONWEALTH OF INDEPENDENT STATES (CIS)

Current information (Y/N): Y

RCS size: SMALL

Orbital parameters

Period: 102.14 minutes

Inclination: 82.5447 deg

SMA: 7238.098 km

Apoapsis: 869.206 km

Periapsis: 850.72 km

RAAN: 238.7713 deg

Eccentricy: 0.001277

Argument of periapsis: 332.7438 deg

Mean anomaly: 27.3064 deg

Mean motion: 14.09827751 rev/day

Mean motion (dot): 0.00001544 rev/day2

B* drag term: 0.00086948968 1/REarth

Two-line elements (TLE)

Creation date: Aug. 31, 2025, 2:26 a.m.

Reference frame: TEME

Reference center: EARTH

Epoch: Aug. 30, 2025, 10:41 p.m. UTC

TLE line 0: 0 SL-14 DEB

TLE line 1: 1 18680U 86101L 25242.94582911 .00001544 00000-0 86949-3 0 9996

TLE line 2: 2 18680 82.5447 238.7713 0012770 332.7438 27.3064 14.09827751976359

Live tracking on map

Real-time ground track for satellite SL-14 DEB.

In-orbit conjunctions

A list of the most updated potential collisions computed for object SL-14 DEB.

Target Orbit TCA Probability of collision Miss distance Type
CZ-6A DEB SSO 2024-11-17 12:23:52 0.0002224621 141.0 (m) DEBRIS
COSMOS 1176 COOLANT LEO 2024-11-09 23:06:45 0.0002627946 788.0 (m) DEBRIS
FENGYUN 1C DEB SSO 2024-10-02 02:19:40 0.0003709507 227.0 (m) DEBRIS

Associated space launch

Ionospheric research satellite

SL-14 DEB was lifted into orbit during the mission ‘Tsiklon-3 | Ionozond-E’, on board a Tsiklon-3 space rocket.

The launch took place on Dec. 18, 1986, 8 a.m. from 32/2.

For more information about the launch, click the button.

Launch to space Tsiklon-3 | Ionozond-E
Tsiklon-3 | Ionozond-E

Agency: N/A

Status: Launch Successful

Launch date: Dec. 18, 1986, 8 a.m. UTC

Rocket: Tsiklon-3

Launch pad: 32/2

Location: Plesetsk Cosmodrome, Russian Federation

...

Latest news about this satellite

There are no fresh news available about this satellite. Check back as we update our databases every day.


Newsletter sign-up

Weekly statistics, charts and insights to help you stay on top of the space industry.